Wind_Speed
42 41 42 41 40 40 42 42 43 41 40 39 38 39 40 40 41 41 41 41 42 42 41 40 40 39 39 38 38 38 38 37 36 36 36 36 37 37 37 36 35 36 37 38
43 41 42 43 41 41 41 41 41 41 40 37 38 39 40 41 42 42 42 42 42 42 41 41 40 40 39 37 37 37 37 36 36 36 36 35 36 36 36 36 35 35 36 36
43 42 43 44 40 40 40 40 41 41 39 39 39 39 40 40 41 43 43 43 42 43 41 40 40 39 38 38 38 37 36 35 36 36 36 36 36 35 34 35 34 34 34 34
43 43 44 41 39 39 39 39 39 40 39 40 41 40 40 41 41 42 43 42 42 42 41 40 39 38 38 37 36 35 35 35 34 34 34 34 34 33 33 32 33 33 33 33
43 43 44 40 39 39 39 39 39 40 40 40 40 40 40 40 40 41 42 41 41 41 41 39 37 37 36 35 34 34 34 34 33 32 31 31 31 32 31 31 32 33 33 33
41 41 41 39 39 39 40 41 39 40 40 40 40 40 39 39 39 39 39 39 38 38 37 36 36 36 35 33 32 32 32 31 31 30 29 29 29 29 29 28 28 29 29 30
39 40 40 39 39 38 39 40 39 39 40 40 40 40 38 37 37 38 38 37 36 35 35 34 34 33 33 31 31 30 30 29 28 28 28 28 28 28 28 27 27 27 27 28
38 39 38 37 38 38 39 39 39 39 39 39 39 38 37 36 36 36 36 35 34 33 32 32 32 31 30 29 29 28 27 26 26 25 25 25 25 26 27 27 26 26 27 27
38 37 36 37 37 37 38 39 38 38 38 38 38 37 36 36 36 36 35 34 33 33 32 31 31 30 28 26 26 25 24 24 24 23 23 23 24 25 26 25 25 25 26 26
36 36 36 36 36 37 38 38 38 38 37 37 36 35 35 35 35 35 34 33 32 31 30 28 27 27 26 25 24 23 22 22 22 22 22 22 23 23 24 24 24 24 24 25
34 34 35 35 35 36 37 37 37 37 36 36 35 34 33 33 32 32 31 31 30 29 27 26 25 23 23 22 21 21 21 21 21 21 22 21 21 21 22 21 22 22 22 23
35 34 35 34 34 35 36 36 36 35 34 34 34 33 32 31 31 30 29 28 27 27 26 25 24 23 23 22 22 21 21 21 21 21 21 21 20 20 21 20 20 21 21 22
36 35 35 34 34 34 34 34 34 34 33 33 32 31 30 29 29 28 26 25 25 25 25 24 22 22 21 21 21 21 21 21 20 21 21 20 20 20 20 20 19 19 20 21
34 33 33 32 32 32 32 32 32 32 31 30 29 28 27 26 26 26 24 23 23 23 22 21 21 21 21 21 21 21 21 21 21 20 20 20 20 19 19 18 18 18 19 20
30 30 30 30 30 30 30 30 30 29 29 28 27 26 25 25 24 23 23 22 21 20 20 19 19 19 19 20 20 20 20 20 20 19 19 19 20 19 19 19 18 18 19 20
27 28 28 29 29 29 28 28 28 27 27 26 25 24 23 23 22 22 22 21 20 19 18 18 18 19 19 19 19 19 19 19 19 19 18 18 18 18 18 18 18 17 17 18
25 26 27 27 27 26 26 26 25 25 24 23 23 22 22 22 22 22 22 21 20 19 19 19 18 18 18 18 18 18 17 17 17 18 18 18 18 18 18 17 17 17 17 17
23 24 24 24 24 23 24 24 23 23 23 23 23 22 22 21 21 21 21 21 20 19 19 19 19 19 18 18 18 17 17 16 17 17 17 17 17 17 18 18 18 17 18 18
22 23 23 23 22 22 23 23 23 23 23 22 22 22 22 22 21 21 21 20 20 19 19 19 18 18 17 17 17 17 17 17 17 17 17 17 17 17 17 18 17 17 17 18
22 22 22 22 22 23 23 23 23 23 22 22 22 22 22 22 22 21 21 20 20 19 19 18 18 17 17 17 17 17 17 17 17 17 17 17 17 17 17 17 17 18 18 18
22 22 22 22 22 22 23 23 22 22 22 22 22 22 22 22 21 21 20 20 19 19 18 18 18 17 17 17 17 17 17 17 17 17 17 17 17 17 17 17 17 17 17 18
22 22 22 22 22 22 22 22 22 22 21 21 21 21 20 20 20 20 20 19 18 18 17 17 17 17 17 16 17 17 17 17 17 17 17 17 16 16 16 17 17 17 17 17
20 20 20 21 21 21 21 21 21 20 20 20 20 19 19 19 19 18 18 18 17 16 16 16 16 16 16 16 16 16 16 16 17 17 16 16 15 16 16 16 17 17 17 17
19 19 19 19 20 20 20 20 21 20 20 20 19 19 18 17 17 17 17 17 16 16 16 16 16 16 15 14 15 15 15 16 16 16 16 15 15 15 16 16 16 17 17 17
18 19 19 19 19 19 20 20 20 19 19 18 18 17 17 16 16 16 16 16 16 16 16 16 16 15 15 14 14 14 15 15 16 16 15 15 14 15 15 16 17 17 17 17
18 18 18 18 19 19 19 18 18 18 18 17 16 16 16 16 15 15 15 15 15 15 15 15 15 15 15 15 15 15 16 15 15 15 15 14 14 14 15 16 17 17 17 17
18 18 18 18 18 18 17 17 17 17 16 16 15 15 15 15 15 15 15 14 14 14 14 14 14 14 15 15 15 15 15 15 15 14 15 14 15 15 15 16 17 17 17 17
Wind_Direction
267 268 269 270 271 272 274 275 278 280 281 283 282 282 283 283 284 285 286 287 287 287 288 287 284 282 280 280 277 275 274 271 269 267 267 266 264 263 262 261 259 258 258 257
266 267 267 268 269 272 273 275 277 278 280 281 279 280 282 283 283 284 285 286 287 287 287 286 285 282 281 278 276 276 274 272 269 266 266 266 264 263 262 260 258 258 258 256
265 265 266 267 271 272 272 274 276 278 280 280 279 280 281 282 283 284 285 286 286 287 287 285 283 282 280 278 277 276 273 271 269 266 265 264 264 261 261 259 258 257 256 254
264 264 264 269 270 271 272 274 276 277 278 279 280 281 283 284 285 285 285 286 286 287 286 284 282 281 280 279 276 274 273 271 270 267 264 262 262 261 260 257 257 256 255 252
265 266 267 267 269 271 274 276 276 278 279 279 280 281 282 282 283 285 286 286 286 286 285 283 281 281 281 278 275 274 272 270 268 266 264 262 261 258 257 257 257 257 254 252
266 268 269 270 270 272 274 275 275 276 278 279 281 282 282 282 282 284 286 287 286 285 284 282 281 281 280 278 275 273 271 269 266 263 262 260 260 259 256 256 257 255 250 252
266 268 269 270 272 273 274 275 275 276 278 280 282 283 284 284 284 285 286 286 286 285 283 282 282 282 280 278 274 272 270 267 263 261 260 258 256 257 254 254 255 251 249 250
266 267 269 271 272 272 274 275 277 279 280 281 282 283 283 283 284 285 285 284 284 283 282 283 282 281 280 275 272 271 268 266 263 259 258 256 256 257 256 253 253 251 250 250
264 266 267 269 271 273 274 276 277 278 279 281 282 283 282 282 282 283 284 284 283 281 282 282 281 279 277 272 269 268 266 264 262 259 260 258 256 257 255 251 250 251 250 248
264 264 264 266 269 271 273 275 276 277 278 280 281 281 281 281 281 281 281 282 282 281 282 280 276 275 273 269 266 263 261 261 261 261 261 260 256 257 254 251 251 251 250 245
263 263 264 266 268 270 272 274 275 276 277 279 281 280 280 280 280 280 280 280 280 280 280 278 273 271 269 265 262 261 260 261 262 262 261 260 257 255 253 251 253 250 246 242
263 264 266 268 269 270 271 273 274 276 277 279 280 280 279 278 279 280 281 279 278 278 277 275 272 268 267 264 261 259 259 260 261 261 260 257 254 253 250 249 251 249 243 242
264 265 267 269 270 271 272 273 274 276 276 276 277 278 277 276 277 279 279 278 276 276 275 272 269 267 264 261 260 258 259 260 260 258 257 255 252 250 249 250 250 248 243 241
263 265 267 269 270 271 271 273 274 274 275 275 276 276 276 275 276 276 277 277 276 274 272 268 265 263 261 259 260 260 260 261 260 258 255 251 247 246 247 248 247 246 244 241
265 267 269 270 270 271 272 273 273 272 272 274 274 274 274 275 274 274 276 277 275 272 268 266 263 261 260 261 263 263 262 260 258 256 252 248 244 243 246 248 247 245 243 240
267 268 270 270 270 270 271 272 271 270 271 272 273 274 274 274 273 273 274 274 273 269 265 263 260 259 260 263 264 262 261 259 256 253 250 246 242 243 245 246 245 243 240 239
270 271 271 272 271 270 271 271 270 270 270 270 271 273 272 272 272 273 273 271 269 268 264 262 261 261 261 261 261 260 258 256 253 251 247 244 242 242 243 243 241 240 240 239
274 273 271 271 270 270 271 271 271 272 272 272 272 271 271 271 272 273 272 269 267 267 266 263 263 263 262 260 257 255 255 255 252 248 244 242 240 241 242 240 238 238 239 236
275 274 272 271 271 272 273 273 272 273 273 272 271 271 270 269 271 272 270 268 267 265 264 264 263 262 259 257 255 255 254 252 249 244 241 240 240 241 239 236 235 237 236 235
274 274 273 273 274 275 275 275 274 274 273 272 272 272 270 269 268 268 267 266 265 264 263 262 260 257 254 254 254 254 252 249 246 241 239 239 239 239 238 237 236 235 233 231
275 275 274 274 275 276 276 275 274 274 274 273 272 272 271 268 265 262 262 262 263 263 261 259 255 253 253 253 252 251 251 248 244 239 239 239 239 239 236 235 233 232 229 227
277 276 275 274 275 276 276 276 275 274 273 272 271 270 269 266 262 260 259 259 260 260 258 255 252 252 254 253 252 250 247 242 241 239 237 237 235 233 231 230 229 227 224 223
278 276 275 275 276 276 275 275 274 273 272 271 270 269 268 266 261 258 255 256 256 256 255 252 250 250 251 252 251 247 243 240 239 236 234 233 233 232 229 226 223 220 218 218
279 278 278 278 277 276 274 273 273 273 272 270 267 266 267 265 260 256 253 253 253 253 252 250 249 249 249 249 246 242 238 235 233 231 231 232 232 230 225 222 219 218 216 216
277 278 278 278 277 276 275 274 273 271 270 268 266 265 265 263 259 255 254 254 252 252 250 248 247 246 244 243 239 235 232 230 229 228 229 229 229 226 223 220 218 216 214 214
278 279 278 279 278 276 275 273 271 270 269 267 263 262 262 260 258 256 255 254 252 250 248 246 244 241 239 238 236 233 231 230 228 226 225 224 222 220 219 217 215 213 211 209
279 279 279 278 278 277 275 273 271 270 267 264 261 261 260 259 257 255 253 252 250 248 246 243 241 238 235 232 230 227 226 224 222 221 220 218 217 216 214 211 208 206 204 202
Height
5551 5552 5551 5551 5552 5551 5549 5549 5547 5549 5548 5549 5545 5543 5541 5539 5537 5535 5533 5531 5528 5526 5524 5522 5519 5517 5516 5515 5514 5513 5513 5512 5513 5513 5514 5515 5516 5517 5518 5520 5521 5523 5525 5527
5539 5541 5539 5539 5542 5542 5540 5539 5538 5537 5539 5539 5535 5533 5532 5530 5528 5526 5523 5521 5518 5516 5514 5511 5509 5507 5505 5505 5504 5503 5503 5503 5503 5504 5505 5506 5507 5508 5509 5511 5512 5514 5515 5517
5528 5529 5526 5528 5534 5532 5531 5530 5529 5528 5530 5527 5525 5524 5522 5520 5518 5516 5513 5511 5509 5506 5503 5501 5498 5496 5495 5494 5494 5493 5493 5493 5494 5494 5496 5497 5498 5499 5500 5502 5503 5505 5506 5507
5515 5517 5515 5523 5523 5522 5520 5521 5519 5518 5518 5516 5515 5514 5512 5510 5507 5505 5503 5501 5499 5495 5493 5490 5488 5486 5484 5483 5482 5482 5483 5483 5484 5485 5486 5487 5488 5490 5491 5493 5494 5496 5497 5499
5504 5504 5505 5511 5512 5511 5510 5511 5510 5508 5507 5506 5505 5504 5504 5501 5498 5495 5493 5491 5488 5485 5482 5480 5478 5476 5475 5473 5472 5472 5472 5473 5474 5475 5476 5478 5480 5481 5483 5484 5486 5488 5489 5491
5494 5494 5495 5501 5501 5500 5500 5500 5500 5499 5498 5497 5495 5494 5495 5492 5489 5486 5483 5480 5478 5475 5472 5470 5468 5467 5466 5465 5464 5464 5464 5464 5465 5466 5468 5470 5472 5473 5475 5477 5478 5480 5482 5484
5485 5484 5485 5490 5490 5490 5491 5491 5489 5488 5488 5487 5485 5484 5483 5481 5479 5476 5474 5471 5469 5466 5463 5461 5460 5458 5457 5456 5456 5455 5455 5456 5457 5459 5460 5462 5464 5466 5468 5470 5471 5473 5475 5477
5475 5475 5479 5479 5479 5480 5479 5479 5479 5478 5477 5476 5475 5474 5473 5471 5469 5467 5465 5463 5460 5458 5456 5454 5451 5450 5449 5448 5447 5447 5448 5449 5450 5451 5453 5456 5458 5459 5461 5463 5464 5466 5468 5470
5466 5468 5468 5468 5468 5468 5468 5468 5468 5468 5467 5466 5465 5464 5463 5461 5459 5457 5455 5453 5452 5449 5448 5447 5444 5442 5442 5441 5441 5441 5442 5442 5444 5445 5447 5449 5451 5453 5454 5456 5457 5459 5461 5464
5455 5457 5458 5458 5458 5458 5457 5458 5458 5458 5457 5456 5455 5453 5452 5451 5450 5448 5447 5445 5443 5441 5440 5439 5438 5436 5435 5435 5435 5435 5436 5437 5439 5440 5441 5443 5445 5446 5448 5450 5451 5453 5454 5457
5445 5447 5447 5448 5448 5448 5448 5448 5447 5447 5447 5446 5444 5444 5443 5442 5441 5439 5438 5436 5435 5434 5433 5432 5431 5430 5430 5429 5430 5430 5431 5432 5433 5434 5436 5437 5438 5440 5442 5443 5444 5447 5449 5451
5436 5437 5437 5438 5438 5438 5438 5438 5437 5437 5437 5436 5434 5434 5433 5432 5431 5430 5429 5427 5426 5426 5425 5424 5424 5424 5423 5423 5424 5424 5426 5427 5428 5429 5430 5432 5433 5435 5435 5437 5438 5440 5442 5445
5426 5427 5428 5428 5429 5428 5428 5428 5428 5427 5427 5426 5425 5424 5423 5423 5422 5422 5420 5419 5418 5418 5418 5417 5417 5417 5417 5417 5418 5419 5420 5421 5423 5424 5425 5426 5428 5429 5431 5432 5433 5435 5437 5440
5417 5417 5418 5419 5419 5419 5418 5418 5418 5418 5417 5416 5416 5415 5415 5415 5414 5413 5412 5412 5411 5411 5410 5410 5411 5411 5411 5412 5412 5413 5414 5416 5417 5418 5419 5420 5422 5423 5425 5427 5429 5430 5432 5434
5408 5409 5409 5410 5410 5410 5409 5409 5409 5409 5408 5408 5407 5407 5407 5407 5406 5406 5405 5405 5404 5404 5404 5404 5404 5405 5405 5406 5406 5407 5408 5410 5411 5412 5413 5414 5416 5418 5420 5422 5424 5426 5428 5430
5400 5401 5401 5401 5401 5401 5401 5401 5401 5401 5400 5400 5400 5399 5399 5399 5399 5398 5398 5398 5397 5397 5398 5398 5399 5399 5399 5400 5401 5402 5402 5403 5405 5406 5407 5409 5411 5413 5415 5417 5419 5421 5423 5426
5393 5393 5393 5393 5393 5393 5393 5393 5393 5393 5392 5392 5392 5392 5392 5392 5392 5391 5391 5391 5391 5391 5392 5392 5393 5393 5394 5394 5395 5396 5397 5398 5399 5401 5402 5404 5406 5408 5410 5412 5414 5417 5419 5421
5386 5386 5386 5386 5386 5386 5386 5385 5385 5385 5385 5385 5385 5385 5385 5385 5385 5385 5384 5384 5384 5385 5385 5386 5386 5387 5388 5389 5390 5391 5392 5393 5394 5395 5397 5399 5401 5403 5405 5407 5409 5412 5414 5417
5379 5379 5379 5379 5379 5379 5379 5378 5378 5378 5378 5377 5377 5377 5377 5378 5378 5377 5377 5378 5378 5379 5380 5380 5380 5381 5382 5383 5384 5385 5386 5387 5389 5390 5392 5394 5396 5398 5400 5402 5405 5407 5410 5413
5373 5372 5372 5372 5372 5372 5371 5371 5371 5371 5370 5370 5370 5370 5370 5370 5371 5371 5371 5371 5372 5372 5373 5374 5374 5375 5376 5377 5378 5380 5381 5382 5383 5385 5387 5389 5391 5393 5395 5397 5400 5402 5405 5408
5366 5366 5365 5365 5365 5365 5364 5364 5364 5364 5363 5363 5363 5363 5363 5363 5363 5364 5364 5365 5366 5366 5367 5367 5368 5369 5370 5371 5372 5374 5375 5376 5378 5380 5381 5383 5385 5387 5389 5392 5394 5397 5400 5403
5359 5359 5358 5358 5358 5358 5357 5357 5357 5357 5356 5356 5356 5356 5356 5356 5357 5357 5358 5359 5360 5360 5361 5361 5362 5363 5364 5365 5367 5368 5369 5371 5373 5374 5376 5378 5380 5382 5384 5387 5389 5392 5395 5398
5352 5352 5352 5351 5351 5351 5350 5350 5350 5350 5350 5349 5349 5349 5349 5350 5350 5351 5352 5353 5353 5354 5355 5356 5357 5358 5359 5360 5361 5362 5364 5366 5368 5370 5372 5373 5375 5377 5379 5382 5385 5388 5391 5394
5346 5345 5345 5345 5344 5344 5344 5343 5343 5343 5343 5343 5343 5343 5343 5344 5344 5345 5346 5347 5348 5349 5350 5351 5352 5353 5354 5355 5356 5358 5359 5361 5363 5365 5367 5369 5371 5373 5375 5378 5381 5384 5388 5391
5340 5339 5339 5339 5338 5338 5337 5337 5337 5336 5336 5337 5337 5337 5337 5338 5339 5339 5340 5341 5342 5343 5344 5345 5346 5348 5349 5350 5352 5353 5355 5357 5359 5361 5363 5365 5367 5369 5372 5374 5378 5381 5384 5388
5334 5334 5333 5332 5332 5331 5331 5330 5330 5330 5330 5331 5331 5331 5332 5332 5333 5334 5335 5336 5337 5338 5339 5340 5341 5343 5344 5346 5347 5349 5351 5353 5355 5357 5359 5362 5364 5366 5368 5371 5374 5377 5381 5385
5328 5328 5327 5326 5326 5325 5325 5324 5324 5325 5325 5325 5325 5326 5326 5327 5328 5329 5330 5331 5332 5333 5334 5335 5337 5338 5339 5341 5343 5345 5347 5349 5351 5353 5356 5358 5360 5363 5365 5368 5371 5375 5378 5382